<?xml version="1.0"?>
<gpx xmlns="http://www.topografix.com/GPX/1/1" xmlns:xsi="http://www.w3.org/2001/XMLSchema-instance" version="1.1" creator="GPX RubyGem 1.0.0 -- http://dougfales.github.io/gpx/" xsi:schemaLocation="http://www.topografix.com/GPX/1/1 http://www.topografix.com/GPX/1/1/gpx.xsd">
  <metadata>
    <name/>
    <time>2026-05-09T00:45:15+00:00</time>
    <bound minlat="90.0" minlon="180.0" maxlat="-90.0" maxlon="-180.0"/>
  </metadata>
  <trk>
    <name/>
    <trkseg>
      <trkpt lat="43.4322" lon="-1.595625">
        <time>1970-01-01T00:00:00+00:00</time>
        <ele>3.0</ele>
      </trkpt>
      <trkpt lat="43.431773" lon="-1.595999">
        <time>1970-01-01T00:00:00+00:00</time>
        <ele>4.0</ele>
      </trkpt>
      <trkpt lat="43.431463" lon="-1.59672">
        <time>1970-01-01T00:00:00+00:00</time>
        <ele>4.0</ele>
      </trkpt>
      <trkpt lat="43.431274" lon="-1.597005">
        <time>1970-01-01T00:00:00+00:00</time>
        <ele>5.0</ele>
      </trkpt>
      <trkpt lat="43.43128" lon="-1.5971">
        <time>1970-01-01T00:00:00+00:00</time>
        <ele>5.0</ele>
      </trkpt>
      <trkpt lat="43.431287" lon="-1.597217">
        <time>1970-01-01T00:00:00+00:00</time>
        <ele>5.0</ele>
      </trkpt>
      <trkpt lat="43.431379" lon="-1.597174">
        <time>1970-01-01T00:00:00+00:00</time>
        <ele>4.0</ele>
      </trkpt>
      <trkpt lat="43.431491" lon="-1.596853">
        <time>1970-01-01T00:00:00+00:00</time>
        <ele>4.0</ele>
      </trkpt>
      <trkpt lat="43.431575" lon="-1.596605">
        <time>1970-01-01T00:00:00+00:00</time>
        <ele>4.0</ele>
      </trkpt>
      <trkpt lat="43.431714" lon="-1.59628">
        <time>1970-01-01T00:00:00+00:00</time>
        <ele>4.0</ele>
      </trkpt>
      <trkpt lat="43.431795" lon="-1.59609">
        <time>1970-01-01T00:00:00+00:00</time>
        <ele>4.0</ele>
      </trkpt>
      <trkpt lat="43.432015" lon="-1.5959">
        <time>1970-01-01T00:00:00+00:00</time>
        <ele>3.0</ele>
      </trkpt>
      <trkpt lat="43.432655" lon="-1.595294">
        <time>1970-01-01T00:00:00+00:00</time>
        <ele>3.0</ele>
      </trkpt>
      <trkpt lat="43.433074" lon="-1.594854">
        <time>1970-01-01T00:00:00+00:00</time>
        <ele>2.0</ele>
      </trkpt>
      <trkpt lat="43.433199" lon="-1.594685">
        <time>1970-01-01T00:00:00+00:00</time>
        <ele>2.0</ele>
      </trkpt>
      <trkpt lat="43.433199" lon="-1.594685">
        <time>1970-01-01T00:00:00+00:00</time>
        <ele>2.0</ele>
      </trkpt>
      <trkpt lat="43.433074" lon="-1.594854">
        <time>1970-01-01T00:00:00+00:00</time>
        <ele>2.0</ele>
      </trkpt>
      <trkpt lat="43.432655" lon="-1.595294">
        <time>1970-01-01T00:00:00+00:00</time>
        <ele>3.0</ele>
      </trkpt>
      <trkpt lat="43.432015" lon="-1.5959">
        <time>1970-01-01T00:00:00+00:00</time>
        <ele>3.0</ele>
      </trkpt>
      <trkpt lat="43.431795" lon="-1.59609">
        <time>1970-01-01T00:00:00+00:00</time>
        <ele>4.0</ele>
      </trkpt>
      <trkpt lat="43.431714" lon="-1.59628">
        <time>1970-01-01T00:00:00+00:00</time>
        <ele>4.0</ele>
      </trkpt>
      <trkpt lat="43.431575" lon="-1.596605">
        <time>1970-01-01T00:00:00+00:00</time>
        <ele>4.0</ele>
      </trkpt>
      <trkpt lat="43.431491" lon="-1.596853">
        <time>1970-01-01T00:00:00+00:00</time>
        <ele>4.0</ele>
      </trkpt>
      <trkpt lat="43.431379" lon="-1.597174">
        <time>1970-01-01T00:00:00+00:00</time>
        <ele>4.0</ele>
      </trkpt>
      <trkpt lat="43.431287" lon="-1.597217">
        <time>1970-01-01T00:00:00+00:00</time>
        <ele>5.0</ele>
      </trkpt>
      <trkpt lat="43.43128" lon="-1.5971">
        <time>1970-01-01T00:00:00+00:00</time>
        <ele>5.0</ele>
      </trkpt>
      <trkpt lat="43.431274" lon="-1.597005">
        <time>1970-01-01T00:00:00+00:00</time>
        <ele>5.0</ele>
      </trkpt>
      <trkpt lat="43.431463" lon="-1.59672">
        <time>1970-01-01T00:00:00+00:00</time>
        <ele>4.0</ele>
      </trkpt>
      <trkpt lat="43.431773" lon="-1.595999">
        <time>1970-01-01T00:00:00+00:00</time>
        <ele>4.0</ele>
      </trkpt>
      <trkpt lat="43.4322" lon="-1.595625">
        <time>1970-01-01T00:00:00+00:00</time>
        <ele>3.0</ele>
      </trkpt>
    </trkseg>
  </trk>
</gpx>
